Nur fliegen ist schöner ....

Willkommen beim Flugservice Bautzen GmbH

Wir sind eine nach europäischen Richtlinien zugelassene Flugschule und lizenziertes Luftfahrtunternehmen. Bei uns können sie nicht nur Rundflüge über die Oberlausitz oder Sachsen buchen, sondern in unserer Flugschule selber das Fliegen erlernen. Erfahrene Fluglehrer stehen Ihnen dabei zur Seite.

Wir bieten Ihnen außerdem spezielle Flüge zur Vermessung oder Fotoflüge für Luftbildaufnahmen an. In Zusammenarbeit mit dem Fallschirmsportclub Dresden und dem Cottbuser Fallschirmsportclub setzen wir am Flugplatz Bautzen und Neuhausen Fallschirmspringer ab.
Schauen Sie sich in Ruhe bei uns um und wenn Sie Fragen haben oder weitere Informationen benötigen, scheuen Sie sich nicht Kontakt mit uns aufzunehmen.

Gutscheine für Rundflüge und Tandemsprünge können Sie ganz leicht auch online in unserem Shop erwerben.

Terminkalender

Letzter Monat Mai 2020 Nächster Monat
Mo Di Mi Do Fr Sa So
week 18 1 2 3
week 19 4 5 6 7 8 9 10
week 20 11 12 13 14 15 16 17
week 21 18 19 20 21 22 23 24
week 22 25 26 27 28 29 30 31

Flugwetterinfo

[Quelle: ADDS]
METAR
EDDC 292320Z 01005KT CAVOK 11/04 Q1024 =
EDDC 292300Z 3000/3024 VRB03KT CAVOK BECMG 3005/3008 02010KT BECMG 3018/3021 01004KT
TAF
EDDC 292300Z 3000/3024 VRB03KT CAVOK BECMG 3005/3008 02010KT BECMG 3018/3021 01004KT =
SR / SS: 02:52 / 19:06 UTC (EDAB Flugplatz Bautzen 2020-05-30)

Öffnungszeiten

des Flugplatzes Bautzen erfahren Sie hier:

flugplatz bautzen logo
Flugservice Bautzen GmbH, Kornmarkt 34, 02625 Bautzen  Telefon: +49 (3591) 211105, Telefax: +49 (3591) 274512, E-Mail:  flugservice(at)fsbautzen.de